Address 0xd035dfe329f35946edd486ce51b383133f6b2f5a 2

 
Txn Hash Method
Block
From
To
Value [Txn Fee]
0x989fe7d06a3ce29377a6d76f90241799ad5dbf559f56b5f0c1c519f77a0b27c4Egg It48511632022-01-21 7:21:183 hrs 41 mins ago0xd035dfe329f35946edd486ce51b383133f6b2f5aOUT 0xa0dc9e505373e92ede773de021444ae251f9c1710 ETH0.017617509145 ETH
0xcaade1a004a0eb0cad6c4c7406cdf9505c7fc3b1b9da1d48cfd55f00ead657baSwap Exact Token...48077792022-01-20 1:48:521 day 9 hrs ago0xd035dfe329f35946edd486ce51b383133f6b2f5aOUT SushiSwap: Router0 ETH0.001224261068 ETH
0x67dfba5d12c084fc355f0346dcc0f9322b05d91f0b6a3b8566b1ad44d88cb90cHarvest All48076342022-01-20 1:44:271 day 9 hrs ago0xd035dfe329f35946edd486ce51b383133f6b2f5aOUT 0xd300322832765fee6b910d314f2c2d879427226f0 ETH0.000843472923 ETH
0xf49dc0065512afbda5dd029626297ade4a1c81fba3501da295a95a39c3def26aHarvest All48076292022-01-20 1:44:271 day 9 hrs ago0xd035dfe329f35946edd486ce51b383133f6b2f5aOUT 0xdf19f1216aa406df8bc585246bee7d96933f285f0 ETH0.000884532663 ETH
0xbeae8e6bb853f1da1a1afef3bb21a99e474767643fee6405705813a3b6346b95Withdraw Positio...48075962022-01-20 1:42:441 day 9 hrs ago0xd035dfe329f35946edd486ce51b383133f6b2f5aOUT 0xdf19f1216aa406df8bc585246bee7d96933f285f0 ETH0.000867017944 ETH
0x94bfcf61df3e7ec30433bd90d6239fddb7b9a5b7a5da6e03b60c82bde40de5caWithdraw Positio...48075902022-01-20 1:42:441 day 9 hrs ago0xd035dfe329f35946edd486ce51b383133f6b2f5aOUT 0xdf19f1216aa406df8bc585246bee7d96933f285f0 ETH0.000999056709 ETH
0x8b75b62330cc7fb21c15c8d2ee9194b0986d20bc219a61736e5e67f51f4d6b5bSwap Exact Token...47240552022-01-17 8:03:574 days 2 hrs ago0xd035dfe329f35946edd486ce51b383133f6b2f5aOUT SushiSwap: Router0 ETH0.001321324021 ETH
0xe13f2f1b382652624a30181d3219e9b2d19afe94dd640ab400b4d7c143f18855Harvest All47240262022-01-17 8:03:574 days 2 hrs ago0xd035dfe329f35946edd486ce51b383133f6b2f5aOUT 0xdf19f1216aa406df8bc585246bee7d96933f285f0 ETH0.001085556781 ETH
0x102149707d1fb0cb8fca0c29e53badb6c4a7783376b663102b67baaa96bf56c3Swap Exact Token...47056702022-01-16 18:45:534 days 16 hrs ago0xd035dfe329f35946edd486ce51b383133f6b2f5aOUT SushiSwap: Router0 ETH0.00129346063 ETH
0xd949c9c230412d865ad60c6d18ddec3f6f9fb7ceb30f4596faa5cb8735d4f878Harvest All47056382022-01-16 18:44:184 days 16 hrs ago0xd035dfe329f35946edd486ce51b383133f6b2f5aOUT 0xd300322832765fee6b910d314f2c2d879427226f0 ETH0.000892207746 ETH
0xe02f63c9507901b461c021c7edcbe80e13537bfe2435b23466d9ae4ea0b59b46Harvest All47056342022-01-16 18:44:184 days 16 hrs ago0xd035dfe329f35946edd486ce51b383133f6b2f5aOUT 0xdf19f1216aa406df8bc585246bee7d96933f285f0 ETH0.000926282751 ETH
0x6b86ec2024462d96b3b3ae136579a995e2299bd833d7e10afcdc4a555e3e6a4dSwap Exact Token...46889162022-01-16 7:06:565 days 3 hrs ago0xd035dfe329f35946edd486ce51b383133f6b2f5aOUT SushiSwap: Router0 ETH0.001417579815 ETH
0xd30e0e80a819c79d73461ff8a177bc748db7576e9bbc98dfe85c2ea9b19d583dHarvest All46886132022-01-16 6:49:225 days 4 hrs ago0xd035dfe329f35946edd486ce51b383133f6b2f5aOUT 0xd300322832765fee6b910d314f2c2d879427226f0 ETH0.000979792755 ETH
0x49d8329e024622cdc4957627e87f00775d38369b47ca72e6ea75af27d296c98aHarvest All46886072022-01-16 6:49:225 days 4 hrs ago0xd035dfe329f35946edd486ce51b383133f6b2f5aOUT 0xdf19f1216aa406df8bc585246bee7d96933f285f0 ETH0.00102142797 ETH
0x2fc418b72007ce760f12f11f2d5a4fc01c38cce85af2f8da275cbc227c09f2b8Swap Exact Token...46691632022-01-15 14:40:135 days 20 hrs ago0xd035dfe329f35946edd486ce51b383133f6b2f5aOUT SushiSwap: Router0 ETH0.001503570667 ETH
0x4c5d8f7bc0dd5b71a25b338aa87d2e440f21e5daa6606d90435f701995bf0309Harvest All46691232022-01-15 14:38:455 days 20 hrs ago0xd035dfe329f35946edd486ce51b383133f6b2f5aOUT 0xd300322832765fee6b910d314f2c2d879427226f0 ETH0.001039812909 ETH
0xf2405c881c8e8ca8a4e4068471a4bef0fe35d813ffa767c4bacf7482b62a675dHarvest All46691182022-01-15 14:38:455 days 20 hrs ago0xd035dfe329f35946edd486ce51b383133f6b2f5aOUT 0xdf19f1216aa406df8bc585246bee7d96933f285f0 ETH0.001240325854 ETH
0xf5cacaf17333d36c57baab2099ac9eec703e7367c9cabecc346df3ace4834cb6Swap Exact Token...46362212022-01-14 10:41:287 days 21 mins ago0xd035dfe329f35946edd486ce51b383133f6b2f5aOUT SushiSwap: Router0 ETH0.001675577598 ETH
0x706fe791de29557e077a3bdd6465701c4da7d7fa7c2ad7b848ec5e4b66fa1841Harvest All46349412022-01-14 9:15:427 days 1 hr ago0xd035dfe329f35946edd486ce51b383133f6b2f5aOUT 0xd300322832765fee6b910d314f2c2d879427226f0 ETH0.001170137963 ETH
0x9dcb2aa3303172390429d897b11fd2ff1570a32dd0f76d13e685fbbc238db9bbHarvest All46348762022-01-14 9:10:407 days 1 hr ago0xd035dfe329f35946edd486ce51b383133f6b2f5aOUT 0xdf19f1216aa406df8bc585246bee7d96933f285f0 ETH0.001224712554 ETH
0x6051b26b1c0dd79f178eafcea273cc2b0b5ad97298acd37928d538b432ef6cc5Swap Exact ETH F...46181752022-01-13 17:42:317 days 17 hrs ago0xd035dfe329f35946edd486ce51b383133f6b2f5aOUT SushiSwap: Router0.1 ETH0.001595267735 ETH
0x0c971e3b7db274c859b26dec289679107d6a287767d3d224d31ef7fec73dc24c0x679b6ded46172112022-01-13 17:08:547 days 17 hrs ago0xd035dfe329f35946edd486ce51b383133f6b2f5aOUT0x000000000000000000000000000000000000006e0.12 ETH0.00000015971 ETH
0xc84427b35a2166eef265f672c7bfe10f23e38b0bc809cb88a97ab8db743a8063Swap Exact ETH F...45965502022-01-12 22:26:438 days 12 hrs ago0xd035dfe329f35946edd486ce51b383133f6b2f5aOUT SushiSwap: Router0.04 ETH0.00154818307 ETH
0x798d8c8822427e5d83b1a35c00acf63573895b1109b461693bac14038608009dHarvest All45965222022-01-12 22:26:128 days 12 hrs ago0xd035dfe329f35946edd486ce51b383133f6b2f5aOUT 0xdf19f1216aa406df8bc585246bee7d96933f285f0 ETH0.001148112671 ETH
0xca7e8dcfde33114abb2f714e2f39d5a97efdcc27e5db10bf8359d839d15317aaHarvest All45964822022-01-12 22:24:008 days 12 hrs ago0xd035dfe329f35946edd486ce51b383133f6b2f5aOUT 0xdf19f1216aa406df8bc585246bee7d96933f285f0 ETH0.001125112477 ETH
[ Download CSV Export 
Parent Txn Hash Block From To Value
Loading

Contract Name:
0 ETH

Compiler Version
0

Optimization Enabled:
0 ETH

Other Settings:
-NA-
Block Transaction Gas Used Reward
Age Block Fee Address BC Fee Address Voting Power Jailed Incoming
Block Uncle Number Difficulty Gas Used Reward
Loading
Loading
Make sure to use the "Vote Down" button for any spammy posts, and the "Vote Up" for interesting conversations.